Year,Month,Day,Hour,Minute,Value (Times are PST for temperature in C)
2017,11,27,00,00,4.90
2017,11,27,00,01,4.80
2017,11,27,00,02,4.80
2017,11,27,00,03,4.80
2017,11,27,00,04,4.80
2017,11,27,00,05,4.80
2017,11,27,00,06,4.70
2017,11,27,00,07,4.70
2017,11,27,00,08,4.70
2017,11,27,00,09,4.60
2017,11,27,00,10,4.60
2017,11,27,00,11,4.60
2017,11,27,00,12,4.60
2017,11,27,00,13,4.50
2017,11,27,00,14,4.50
2017,11,27,00,15,4.40
2017,11,27,00,16,4.40
2017,11,27,00,17,4.40
2017,11,27,00,18,4.30
2017,11,27,00,19,4.30
2017,11,27,00,20,4.30
2017,11,27,00,21,4.20
2017,11,27,00,22,4.20
2017,11,27,00,23,4.20
2017,11,27,00,24,4.10
2017,11,27,00,25,4.10
2017,11,27,00,26,4.00
2017,11,27,00,27,4.00
2017,11,27,00,28,4.00
2017,11,27,00,29,3.90
2017,11,27,00,30,3.90
2017,11,27,00,31,3.90
2017,11,27,00,32,3.80
2017,11,27,00,33,3.80
2017,11,27,00,34,3.80
2017,11,27,00,35,3.80
2017,11,27,00,36,3.80
2017,11,27,00,37,3.70
2017,11,27,00,38,3.70
2017,11,27,00,39,3.70
2017,11,27,00,40,3.70
2017,11,27,00,41,3.60
2017,11,27,00,42,3.60
2017,11,27,00,43,3.60
2017,11,27,00,44,3.50
2017,11,27,00,45,3.50
2017,11,27,00,46,3.50
2017,11,27,00,47,3.40
2017,11,27,00,48,3.40
2017,11,27,00,49,3.40
2017,11,27,00,50,3.30
2017,11,27,00,51,3.30
2017,11,27,00,52,3.30
2017,11,27,00,53,3.30
2017,11,27,00,54,3.20
2017,11,27,00,55,3.20
2017,11,27,00,56,3.20
2017,11,27,00,57,3.10
2017,11,27,00,58,3.10
2017,11,27,00,59,3.10
2017,11,27,01,00,3.10
2017,11,27,01,01,3.10
2017,11,27,01,02,3.00
2017,11,27,01,03,3.00
2017,11,27,01,04,2.90
2017,11,27,01,05,2.90
2017,11,27,01,06,2.90
2017,11,27,01,07,2.90
2017,11,27,01,08,2.90
2017,11,27,01,09,2.80
2017,11,27,01,10,2.80
2017,11,27,01,11,2.80
2017,11,27,01,12,2.80
2017,11,27,01,13,2.80
2017,11,27,01,14,2.80
2017,11,27,01,15,2.70
2017,11,27,01,16,2.70
2017,11,27,01,17,2.70
2017,11,27,01,18,2.70
2017,11,27,01,19,2.70
2017,11,27,01,20,2.60
2017,11,27,01,21,2.60
2017,11,27,01,22,2.60
2017,11,27,01,23,2.60
2017,11,27,01,24,2.60
2017,11,27,01,25,2.60
2017,11,27,01,26,2.60
2017,11,27,01,27,2.60
2017,11,27,01,28,2.70
2017,11,27,01,29,2.70
2017,11,27,01,30,2.70
2017,11,27,01,31,2.70
2017,11,27,01,32,2.70
2017,11,27,01,33,2.70
2017,11,27,01,34,2.70
2017,11,27,01,35,2.80
2017,11,27,01,36,2.80
2017,11,27,01,37,2.80
2017,11,27,01,38,2.70
2017,11,27,01,39,2.70
2017,11,27,01,40,2.70
2017,11,27,01,41,2.70
2017,11,27,01,42,2.70
2017,11,27,01,43,2.70
2017,11,27,01,44,2.70
2017,11,27,01,45,2.70
2017,11,27,01,46,2.70
2017,11,27,01,47,2.70
2017,11,27,01,48,2.80
2017,11,27,01,49,2.80
2017,11,27,01,50,2.80
2017,11,27,01,51,2.80
2017,11,27,01,52,2.80
2017,11,27,01,53,2.80
2017,11,27,01,54,2.80
2017,11,27,01,55,2.80
2017,11,27,01,56,2.80
2017,11,27,01,57,2.80
2017,11,27,01,58,2.80
2017,11,27,01,59,2.80
2017,11,27,02,00,2.80
2017,11,27,02,01,2.90
2017,11,27,02,02,2.90
2017,11,27,02,03,2.90
2017,11,27,02,04,2.90
2017,11,27,02,05,2.90
2017,11,27,02,06,2.90
2017,11,27,02,07,2.90
2017,11,27,02,08,2.90
2017,11,27,02,09,2.90
2017,11,27,02,10,2.90
2017,11,27,02,11,2.80
2017,11,27,02,12,2.80
2017,11,27,02,13,2.80
2017,11,27,02,14,2.90
2017,11,27,02,15,2.80
2017,11,27,02,16,2.80
2017,11,27,02,17,2.80
2017,11,27,02,18,2.80
2017,11,27,02,19,2.80
2017,11,27,02,20,2.80
2017,11,27,02,21,2.80
2017,11,27,02,22,2.70
2017,11,27,02,23,2.70
2017,11,27,02,24,2.70
2017,11,27,02,25,2.70
2017,11,27,02,26,2.70
2017,11,27,02,27,2.70
2017,11,27,02,28,2.70
2017,11,27,02,29,2.70
2017,11,27,02,30,2.70
2017,11,27,02,31,2.70
2017,11,27,02,32,2.70
2017,11,27,02,33,2.70
2017,11,27,02,34,2.60
2017,11,27,02,35,2.60
2017,11,27,02,36,2.60
2017,11,27,02,37,2.60
2017,11,27,02,38,2.60
2017,11,27,02,39,2.60
2017,11,27,02,40,2.50
2017,11,27,02,41,2.50
2017,11,27,02,42,2.50
2017,11,27,02,43,2.40
2017,11,27,02,44,2.40
2017,11,27,02,45,2.40
2017,11,27,02,46,2.40
2017,11,27,02,47,2.30
2017,11,27,02,48,2.30
2017,11,27,02,49,2.30
2017,11,27,02,50,2.30
2017,11,27,02,51,2.30
2017,11,27,02,52,2.30
2017,11,27,02,53,2.20
2017,11,27,02,54,2.20
2017,11,27,02,55,2.20
2017,11,27,02,56,2.20
2017,11,27,02,57,2.20
2017,11,27,02,58,2.20
2017,11,27,02,59,2.10
2017,11,27,03,00,2.10
2017,11,27,03,01,2.10
2017,11,27,03,02,2.10
2017,11,27,03,03,2.10
2017,11,27,03,04,2.10
2017,11,27,03,05,2.10
2017,11,27,03,06,2.10
2017,11,27,03,07,2.10
2017,11,27,03,08,2.10
2017,11,27,03,09,2.10
2017,11,27,03,10,2.10
2017,11,27,03,11,2.10
2017,11,27,03,12,2.10
2017,11,27,03,13,2.10
2017,11,27,03,14,2.00
2017,11,27,03,15,2.00
2017,11,27,03,16,2.00
2017,11,27,03,17,1.90
2017,11,27,03,18,1.90
2017,11,27,03,19,1.90
2017,11,27,03,20,1.90
2017,11,27,03,21,1.80
2017,11,27,03,22,1.80
2017,11,27,03,23,1.80
2017,11,27,03,24,1.80
2017,11,27,03,25,1.80
2017,11,27,03,26,1.80
2017,11,27,03,27,1.70
2017,11,27,03,28,1.70
2017,11,27,03,29,1.70
2017,11,27,03,30,1.70
2017,11,27,03,31,1.60
2017,11,27,03,32,1.60
2017,11,27,03,33,1.60
2017,11,27,03,34,1.60
2017,11,27,03,35,1.50
2017,11,27,03,36,1.50
2017,11,27,03,37,1.50
2017,11,27,03,38,1.50
2017,11,27,03,39,1.40
2017,11,27,03,40,1.40
2017,11,27,03,41,1.40
2017,11,27,03,42,1.40
2017,11,27,03,43,1.40
2017,11,27,03,44,1.30
2017,11,27,03,45,1.30
2017,11,27,03,46,1.30
2017,11,27,03,47,1.30
2017,11,27,03,48,1.30
2017,11,27,03,49,1.30
2017,11,27,03,50,1.20
2017,11,27,03,51,1.20
2017,11,27,03,52,1.20
2017,11,27,03,53,1.20
2017,11,27,03,54,1.20
2017,11,27,03,55,1.20
2017,11,27,03,56,1.20
2017,11,27,03,57,1.20
2017,11,27,03,58,1.10
2017,11,27,03,59,1.10
2017,11,27,04,00,1.10
2017,11,27,04,01,1.10
2017,11,27,04,02,1.10
2017,11,27,04,03,1.10
2017,11,27,04,04,1.00
2017,11,27,04,05,1.00
2017,11,27,04,06,1.00
2017,11,27,04,07,0.90
2017,11,27,04,08,0.90
2017,11,27,04,09,0.90
2017,11,27,04,10,0.90
2017,11,27,04,11,0.90
2017,11,27,04,12,0.80
2017,11,27,04,13,0.80
2017,11,27,04,14,0.80
2017,11,27,04,15,0.90
2017,11,27,04,16,0.80
2017,11,27,04,17,0.80
2017,11,27,04,18,0.80
2017,11,27,04,19,0.80
2017,11,27,04,20,0.80
2017,11,27,04,21,0.80
2017,11,27,04,22,0.80
2017,11,27,04,23,0.80
2017,11,27,04,24,0.80
2017,11,27,04,25,0.80
2017,11,27,04,26,0.80
2017,11,27,04,27,0.80
2017,11,27,04,28,0.70
2017,11,27,04,29,0.70
2017,11,27,04,30,0.70
2017,11,27,04,31,0.70
2017,11,27,04,32,0.70
2017,11,27,04,33,0.70
2017,11,27,04,34,0.70
2017,11,27,04,35,0.70
2017,11,27,04,36,0.70
2017,11,27,04,37,0.60
2017,11,27,04,38,0.60
2017,11,27,04,39,0.60
2017,11,27,04,40,0.60
2017,11,27,04,41,0.60
2017,11,27,04,42,0.60
2017,11,27,04,43,0.60
2017,11,27,04,44,0.60
2017,11,27,04,45,0.70
2017,11,27,04,46,0.70
2017,11,27,04,47,0.70
2017,11,27,04,48,0.70
2017,11,27,04,49,0.70
2017,11,27,04,50,0.70
2017,11,27,04,51,0.70
2017,11,27,04,52,0.70
2017,11,27,04,53,0.70
2017,11,27,04,54,0.70
2017,11,27,04,55,0.70
2017,11,27,04,56,0.70
2017,11,27,04,57,0.70
2017,11,27,04,58,0.70
2017,11,27,04,59,0.80
2017,11,27,05,00,0.80
2017,11,27,05,01,0.80
2017,11,27,05,02,0.80
2017,11,27,05,03,0.80
2017,11,27,05,04,0.70
2017,11,27,05,05,0.70
2017,11,27,05,06,0.70
2017,11,27,05,07,0.70
2017,11,27,05,08,0.70
2017,11,27,05,09,0.70
2017,11,27,05,10,0.70
2017,11,27,05,11,0.70
2017,11,27,05,12,0.70
2017,11,27,05,13,0.70
2017,11,27,05,14,0.70
2017,11,27,05,15,0.70
2017,11,27,05,16,0.70
2017,11,27,05,17,0.70
2017,11,27,05,18,0.70
2017,11,27,05,19,0.70
2017,11,27,05,20,0.70
2017,11,27,05,21,0.70
2017,11,27,05,22,0.70
2017,11,27,05,23,0.70
2017,11,27,05,24,0.70
2017,11,27,05,25,0.70
2017,11,27,05,26,0.70
2017,11,27,05,27,0.70
2017,11,27,05,28,0.70
2017,11,27,05,29,0.70
2017,11,27,05,30,0.70
2017,11,27,05,31,0.70
2017,11,27,05,32,0.70
2017,11,27,05,33,0.70
2017,11,27,05,34,0.70
2017,11,27,05,35,0.70
2017,11,27,05,36,0.70
2017,11,27,05,37,0.70
2017,11,27,05,38,0.70
2017,11,27,05,39,0.70
2017,11,27,05,40,0.70
2017,11,27,05,41,0.70
2017,11,27,05,42,0.70
2017,11,27,05,43,0.70
2017,11,27,05,44,0.70
2017,11,27,05,45,0.70
2017,11,27,05,46,0.70
2017,11,27,05,47,0.70
2017,11,27,05,48,0.70
2017,11,27,05,49,0.60
2017,11,27,05,50,0.60
2017,11,27,05,51,0.60
2017,11,27,05,52,0.60
2017,11,27,05,53,0.60
2017,11,27,05,54,0.60
2017,11,27,05,55,0.60
2017,11,27,05,56,0.50
2017,11,27,05,57,0.50
2017,11,27,05,58,0.50
2017,11,27,05,59,0.50
2017,11,27,06,00,0.50
2017,11,27,06,01,0.50
2017,11,27,06,02,0.50
2017,11,27,06,03,0.50
2017,11,27,06,04,0.50
2017,11,27,06,05,0.50
2017,11,27,06,06,0.40
2017,11,27,06,07,0.40
2017,11,27,06,08,0.40
2017,11,27,06,09,0.40
2017,11,27,06,10,0.40
2017,11,27,06,11,0.40
2017,11,27,06,12,0.30
2017,11,27,06,13,0.30
2017,11,27,06,14,0.30
2017,11,27,06,15,0.30
2017,11,27,06,16,0.30
2017,11,27,06,17,0.30
2017,11,27,06,18,0.30
2017,11,27,06,19,0.30
2017,11,27,06,20,0.30
2017,11,27,06,21,0.30
2017,11,27,06,22,0.30
2017,11,27,06,23,0.30
2017,11,27,06,24,0.30
2017,11,27,06,25,0.30
2017,11,27,06,26,0.30
2017,11,27,06,27,0.30
2017,11,27,06,28,0.30
2017,11,27,06,29,0.20
2017,11,27,06,30,0.20
2017,11,27,06,31,0.20
2017,11,27,06,32,0.20
2017,11,27,06,33,0.20
2017,11,27,06,34,0.20
2017,11,27,06,35,0.20
2017,11,27,06,36,0.20
2017,11,27,06,37,0.20
2017,11,27,06,38,0.20
2017,11,27,06,39,0.20
2017,11,27,06,40,0.20
2017,11,27,06,41,0.20
2017,11,27,06,42,0.20
2017,11,27,06,43,0.20
2017,11,27,06,44,0.20
2017,11,27,06,45,0.20
2017,11,27,06,46,0.30
2017,11,27,06,47,0.30
2017,11,27,06,48,0.30
2017,11,27,06,49,0.30
2017,11,27,06,50,0.30
2017,11,27,06,51,0.30
2017,11,27,06,52,0.30
2017,11,27,06,53,0.30
2017,11,27,06,54,0.30
2017,11,27,06,55,0.30
2017,11,27,06,56,0.30
2017,11,27,06,57,0.30
2017,11,27,06,58,0.30
2017,11,27,06,59,0.20
2017,11,27,07,00,0.20
2017,11,27,07,01,0.20
2017,11,27,07,02,0.20
2017,11,27,07,03,0.20
2017,11,27,07,04,0.20
2017,11,27,07,05,0.20
2017,11,27,07,06,0.20
2017,11,27,07,07,0.20
2017,11,27,07,08,0.10
2017,11,27,07,09,0.10
2017,11,27,07,10,0.10
2017,11,27,07,11,0.10
2017,11,27,07,12,0.10
2017,11,27,07,13,0.10
2017,11,27,07,14,0.10
2017,11,27,07,15,0.10
2017,11,27,07,16,0.10
2017,11,27,07,17,0.10
2017,11,27,07,18,0.00
2017,11,27,07,19,0.00
2017,11,27,07,20,0.00
2017,11,27,07,21,0.00
2017,11,27,07,22,0.00
2017,11,27,07,23,0.00
2017,11,27,07,24,-0.10
2017,11,27,07,25,-0.10
2017,11,27,07,26,-0.10
2017,11,27,07,27,-0.10
2017,11,27,07,28,-0.10
2017,11,27,07,29,-0.10
2017,11,27,07,30,-0.20
2017,11,27,07,31,-0.20
2017,11,27,07,32,-0.20
2017,11,27,07,33,-0.20
2017,11,27,07,34,-0.20
2017,11,27,07,35,-0.20
2017,11,27,07,36,-0.20
2017,11,27,07,37,-0.20
2017,11,27,07,38,-0.20
2017,11,27,07,39,-0.20
2017,11,27,07,40,-0.10
2017,11,27,07,41,-0.10
2017,11,27,07,42,-0.10
2017,11,27,07,43,-0.10
2017,11,27,07,44,-0.10
2017,11,27,07,45,-0.10
2017,11,27,07,46,-0.10
2017,11,27,07,47,-0.10
2017,11,27,07,48,-0.10
2017,11,27,07,49,-0.10
2017,11,27,07,50,-0.10
2017,11,27,07,51,-0.10
2017,11,27,07,52,-0.10
2017,11,27,07,53,-0.10
2017,11,27,07,54,-0.10
2017,11,27,07,55,-0.10
2017,11,27,07,56,-0.10
2017,11,27,07,57,-0.10
2017,11,27,07,58,-0.10
2017,11,27,07,59,-0.10
2017,11,27,08,00,-0.10
2017,11,27,08,01,-0.10
2017,11,27,08,02,-0.10
2017,11,27,08,03,-0.10
2017,11,27,08,04,-0.10
2017,11,27,08,05,-0.10
2017,11,27,08,06,-0.20
2017,11,27,08,07,-0.20
2017,11,27,08,08,-0.20
2017,11,27,08,09,-0.20
2017,11,27,08,10,-0.20
2017,11,27,08,11,-0.20
2017,11,27,08,12,-0.20
2017,11,27,08,13,-0.20
2017,11,27,08,14,-0.20
2017,11,27,08,15,-0.20
2017,11,27,08,16,-0.20
2017,11,27,08,17,-0.20
2017,11,27,08,18,-0.20
2017,11,27,08,19,-0.20
2017,11,27,08,20,-0.20
2017,11,27,08,21,-0.20
2017,11,27,08,22,-0.20
2017,11,27,08,23,-0.20
2017,11,27,08,24,-0.20
2017,11,27,08,25,-0.20
2017,11,27,08,26,-0.20
2017,11,27,08,27,-0.20
2017,11,27,08,28,-0.20
2017,11,27,08,29,-0.20
2017,11,27,08,30,-0.20
2017,11,27,08,31,-0.20
2017,11,27,08,32,-0.20
2017,11,27,08,33,-0.10
2017,11,27,08,34,-0.10
2017,11,27,08,35,-0.10
2017,11,27,08,36,0.00
2017,11,27,08,37,0.00
2017,11,27,08,38,0.10
2017,11,27,08,39,0.20
2017,11,27,08,40,0.20
2017,11,27,08,41,0.20
2017,11,27,08,42,0.20
2017,11,27,08,43,0.30
2017,11,27,08,44,0.30
2017,11,27,08,45,0.30
2017,11,27,08,46,0.30
2017,11,27,08,47,0.40
2017,11,27,08,48,0.40
2017,11,27,08,49,0.40
2017,11,27,08,50,0.40
2017,11,27,08,51,0.50
2017,11,27,08,52,0.50
2017,11,27,08,53,0.50
2017,11,27,08,54,0.50
2017,11,27,08,55,0.60
2017,11,27,08,56,0.60
2017,11,27,08,57,0.70
2017,11,27,08,58,0.70
2017,11,27,08,59,0.80
2017,11,27,09,00,0.80
2017,11,27,09,01,0.80
2017,11,27,09,02,0.90
2017,11,27,09,03,0.90
2017,11,27,09,04,1.00
2017,11,27,09,05,1.00
2017,11,27,09,06,1.10
2017,11,27,09,07,1.10
2017,11,27,09,08,1.10
2017,11,27,09,09,1.10
2017,11,27,09,10,1.10
2017,11,27,09,11,1.20
2017,11,27,09,12,1.20
2017,11,27,09,13,1.20
2017,11,27,09,14,1.30
2017,11,27,09,15,1.30
2017,11,27,09,16,1.30
2017,11,27,09,17,1.40
2017,11,27,09,18,1.40
2017,11,27,09,19,1.40
2017,11,27,09,20,1.50
2017,11,27,09,21,1.50
2017,11,27,09,22,1.60
2017,11,27,09,23,1.60
2017,11,27,09,24,1.60
2017,11,27,09,25,1.70
2017,11,27,09,26,1.70
2017,11,27,09,27,1.70
2017,11,27,09,28,1.80
2017,11,27,09,29,1.80
2017,11,27,09,30,1.80
2017,11,27,09,31,1.90
2017,11,27,09,32,2.00
2017,11,27,09,33,2.10
2017,11,27,09,34,2.10
2017,11,27,09,35,2.20
2017,11,27,09,36,2.20
2017,11,27,09,37,2.20
2017,11,27,09,38,2.30
2017,11,27,09,39,2.40
2017,11,27,09,40,2.40
2017,11,27,09,41,2.50
2017,11,27,09,42,2.50
2017,11,27,09,43,2.60
2017,11,27,09,44,2.60
2017,11,27,09,45,2.70
2017,11,27,09,46,2.70
2017,11,27,09,47,2.80
2017,11,27,09,48,2.80
2017,11,27,09,49,2.90
2017,11,27,09,50,2.90
2017,11,27,09,51,2.90
2017,11,27,09,52,3.00
2017,11,27,09,53,3.10
2017,11,27,09,54,3.10
2017,11,27,09,55,3.20
2017,11,27,09,56,3.20
2017,11,27,09,57,3.30
2017,11,27,09,58,3.40
2017,11,27,09,59,3.40
2017,11,27,10,00,3.50
2017,11,27,10,01,3.50
2017,11,27,10,02,3.60
2017,11,27,10,03,3.60
2017,11,27,10,04,3.60
2017,11,27,10,05,3.70
2017,11,27,10,06,3.70
2017,11,27,10,07,3.70
2017,11,27,10,08,3.80
2017,11,27,10,09,3.80
2017,11,27,10,10,3.80
2017,11,27,10,11,3.90
2017,11,27,10,12,3.90
2017,11,27,10,13,3.90
2017,11,27,10,14,4.00
2017,11,27,10,15,4.00
2017,11,27,10,16,4.10
2017,11,27,10,17,4.10
2017,11,27,10,18,4.10
2017,11,27,10,19,4.20
2017,11,27,10,20,4.20
2017,11,27,10,21,4.30
2017,11,27,10,22,4.30
2017,11,27,10,23,4.30
2017,11,27,10,24,4.40
2017,11,27,10,25,4.40
2017,11,27,10,26,4.40
2017,11,27,10,27,4.50
2017,11,27,10,28,4.60
2017,11,27,10,29,4.60
2017,11,27,10,30,4.60
2017,11,27,10,31,4.70
2017,11,27,10,32,4.70
2017,11,27,10,33,4.80
2017,11,27,10,34,4.80
2017,11,27,10,35,4.80
2017,11,27,10,36,4.90
2017,11,27,10,37,4.90
2017,11,27,10,38,4.90
2017,11,27,10,39,5.00
2017,11,27,10,40,5.10
2017,11,27,10,41,5.10
2017,11,27,10,42,5.20
2017,11,27,10,43,5.20
2017,11,27,10,44,5.30
2017,11,27,10,45,5.40
2017,11,27,10,46,5.40
2017,11,27,10,47,5.50
2017,11,27,10,48,5.60
2017,11,27,10,49,5.60
2017,11,27,10,50,5.70
2017,11,27,10,51,5.70
2017,11,27,10,52,5.80
2017,11,27,10,53,5.80
2017,11,27,10,54,5.80
2017,11,27,10,55,5.90
2017,11,27,10,56,5.90
2017,11,27,10,57,6.00
2017,11,27,10,58,6.10
2017,11,27,10,59,6.10
2017,11,27,11,00,6.20
2017,11,27,11,01,6.20
2017,11,27,11,02,6.30
2017,11,27,11,03,6.30
2017,11,27,11,04,6.30
2017,11,27,11,05,6.40
2017,11,27,11,06,6.40
2017,11,27,11,07,6.40
2017,11,27,11,08,6.50
2017,11,27,11,09,6.50
2017,11,27,11,10,6.60
2017,11,27,11,11,6.60
2017,11,27,11,12,6.60
2017,11,27,11,13,6.70
2017,11,27,11,14,6.70
2017,11,27,11,15,6.70
2017,11,27,11,16,6.80
2017,11,27,11,17,6.80
2017,11,27,11,18,6.80
2017,11,27,11,19,6.90
2017,11,27,11,20,6.90
2017,11,27,11,21,6.90
2017,11,27,11,22,7.00
2017,11,27,11,23,7.00
2017,11,27,11,24,7.00
2017,11,27,11,25,7.10
2017,11,27,11,26,7.10
2017,11,27,11,27,7.10
2017,11,27,11,28,7.10
2017,11,27,11,29,7.10
2017,11,27,11,30,7.20
2017,11,27,11,31,7.20
2017,11,27,11,32,7.20
2017,11,27,11,33,7.20
2017,11,27,11,34,7.20
2017,11,27,11,35,7.20
2017,11,27,11,36,7.30
2017,11,27,11,37,7.30
2017,11,27,11,38,7.30
2017,11,27,11,39,7.30
2017,11,27,11,40,7.30
2017,11,27,11,41,7.40
2017,11,27,11,42,7.40
2017,11,27,11,43,7.40
2017,11,27,11,44,7.40
2017,11,27,11,45,7.50
2017,11,27,11,46,7.50
2017,11,27,11,47,7.60
2017,11,27,11,48,7.60
2017,11,27,11,49,7.60
2017,11,27,11,50,7.60
2017,11,27,11,51,7.70
2017,11,27,11,52,7.70
2017,11,27,11,53,7.70
2017,11,27,11,54,7.80
2017,11,27,11,55,7.80
2017,11,27,11,56,7.80
2017,11,27,11,57,7.80
2017,11,27,11,58,7.80
2017,11,27,11,59,7.90
2017,11,27,12,00,7.90
2017,11,27,12,01,7.90
2017,11,27,12,02,8.00
2017,11,27,12,03,8.00
2017,11,27,12,04,8.00
2017,11,27,12,05,8.10
2017,11,27,12,06,8.10
2017,11,27,12,07,8.10
2017,11,27,12,08,8.10
2017,11,27,12,09,8.10
2017,11,27,12,10,8.10
2017,11,27,12,11,8.20
2017,11,27,12,12,8.20
2017,11,27,12,13,8.20
2017,11,27,12,14,8.20
2017,11,27,12,15,8.20
2017,11,27,12,16,8.20
2017,11,27,12,17,8.30
2017,11,27,12,18,8.30
2017,11,27,12,19,8.30
2017,11,27,12,20,8.30
2017,11,27,12,21,8.30
2017,11,27,12,22,8.30
2017,11,27,12,23,8.30
2017,11,27,12,24,8.30
2017,11,27,12,25,8.30
2017,11,27,12,26,8.30
2017,11,27,12,27,8.30
2017,11,27,12,28,8.30
2017,11,27,12,29,8.30
2017,11,27,12,30,8.30
2017,11,27,12,31,8.30
2017,11,27,12,32,8.30
2017,11,27,12,33,8.30
2017,11,27,12,34,8.30
2017,11,27,12,35,8.30
2017,11,27,12,36,8.30
2017,11,27,12,37,8.30
2017,11,27,12,38,8.30
2017,11,27,12,39,8.30
2017,11,27,12,40,8.30
2017,11,27,12,41,8.30
2017,11,27,12,42,8.30
2017,11,27,12,43,8.30
2017,11,27,12,44,8.30
2017,11,27,12,45,8.30
2017,11,27,12,46,8.30
2017,11,27,12,47,8.30
2017,11,27,12,48,8.30
2017,11,27,12,49,8.30
2017,11,27,12,50,8.30
2017,11,27,12,51,8.30
2017,11,27,12,52,8.30
2017,11,27,12,53,8.30
2017,11,27,12,54,8.30
2017,11,27,12,55,8.30
2017,11,27,12,56,8.40
2017,11,27,12,57,8.40
2017,11,27,12,58,8.40
2017,11,27,12,59,8.40
2017,11,27,13,00,8.40
2017,11,27,13,01,8.40
2017,11,27,13,02,8.50
2017,11,27,13,03,8.50
2017,11,27,13,04,8.50
2017,11,27,13,05,8.50
2017,11,27,13,06,8.50
2017,11,27,13,07,8.50
2017,11,27,13,08,8.50
2017,11,27,13,09,8.60
2017,11,27,13,10,8.60
2017,11,27,13,11,8.60
2017,11,27,13,12,8.60
2017,11,27,13,13,8.60
2017,11,27,13,14,8.60
2017,11,27,13,15,8.60
2017,11,27,13,16,8.60
2017,11,27,13,17,8.60
2017,11,27,13,18,8.60
2017,11,27,13,19,8.60
2017,11,27,13,20,8.60
2017,11,27,13,21,8.60
2017,11,27,13,22,8.60
2017,11,27,13,23,8.70
2017,11,27,13,24,8.70
2017,11,27,13,25,8.70
2017,11,27,13,26,8.70
2017,11,27,13,27,8.70
2017,11,27,13,28,8.70
2017,11,27,13,29,8.70
2017,11,27,13,30,8.80
2017,11,27,13,31,8.80
2017,11,27,13,32,8.80
2017,11,27,13,33,8.80
2017,11,27,13,34,8.80
2017,11,27,13,35,8.80
2017,11,27,13,36,8.80
2017,11,27,13,37,8.90
2017,11,27,13,38,8.90
2017,11,27,13,39,8.90
2017,11,27,13,40,8.90
2017,11,27,13,41,8.90
2017,11,27,13,42,8.90
2017,11,27,13,43,8.90
2017,11,27,13,44,8.90
2017,11,27,13,45,8.90
2017,11,27,13,46,9.00
2017,11,27,13,47,9.00
2017,11,27,13,48,9.00
2017,11,27,13,49,9.00
2017,11,27,13,50,9.00
2017,11,27,13,51,9.00
2017,11,27,13,52,9.00
2017,11,27,13,53,9.00
2017,11,27,13,54,9.10
2017,11,27,13,55,9.10
2017,11,27,13,56,9.10
2017,11,27,13,57,9.10
2017,11,27,13,58,9.10
2017,11,27,13,59,9.10
2017,11,27,14,00,9.10
2017,11,27,14,01,9.10
2017,11,27,14,02,9.10
2017,11,27,14,03,9.10
2017,11,27,14,04,9.10
2017,11,27,14,05,9.10
2017,11,27,14,06,9.10
2017,11,27,14,07,9.10
2017,11,27,14,08,9.10
2017,11,27,14,09,9.10
2017,11,27,14,10,9.20
2017,11,27,14,11,9.20
2017,11,27,14,12,9.20
2017,11,27,14,13,9.20
2017,11,27,14,14,9.20
2017,11,27,14,15,9.20
2017,11,27,14,16,9.20
2017,11,27,14,17,9.20
2017,11,27,14,18,9.30
2017,11,27,14,19,9.30
2017,11,27,14,20,9.30
2017,11,27,14,21,9.30
2017,11,27,14,22,9.30
2017,11,27,14,23,9.30
2017,11,27,14,24,9.30
2017,11,27,14,25,9.30
2017,11,27,14,26,9.30
2017,11,27,14,27,9.30
2017,11,27,14,28,9.30
2017,11,27,14,29,9.30
2017,11,27,14,30,9.30
2017,11,27,14,31,9.30
2017,11,27,14,32,9.30
2017,11,27,14,33,9.30
2017,11,27,14,34,9.30
2017,11,27,14,35,9.30
2017,11,27,14,36,9.30
2017,11,27,14,37,9.20
2017,11,27,14,38,9.20
2017,11,27,14,39,9.20
2017,11,27,14,40,9.20
2017,11,27,14,41,9.20
2017,11,27,14,42,9.10
2017,11,27,14,43,9.10
2017,11,27,14,44,9.10
2017,11,27,14,45,9.10
2017,11,27,14,46,9.10
2017,11,27,14,47,9.10
2017,11,27,14,48,9.10
2017,11,27,14,49,9.10
2017,11,27,14,50,9.10
2017,11,27,14,51,9.10
2017,11,27,14,52,9.00
2017,11,27,14,53,9.00
2017,11,27,14,54,9.00
2017,11,27,14,55,8.90
2017,11,27,14,56,8.90
2017,11,27,14,57,8.90
2017,11,27,14,58,8.90
2017,11,27,14,59,8.90
2017,11,27,15,00,8.80
2017,11,27,15,01,8.80
2017,11,27,15,02,8.80
2017,11,27,15,03,8.80
2017,11,27,15,04,8.80
2017,11,27,15,05,8.70
2017,11,27,15,06,8.70
2017,11,27,15,07,8.70
2017,11,27,15,08,8.70
2017,11,27,15,09,8.70
2017,11,27,15,10,8.70
2017,11,27,15,11,8.70
2017,11,27,15,12,8.70
2017,11,27,15,13,8.70
2017,11,27,15,14,8.60
2017,11,27,15,15,8.60
2017,11,27,15,16,8.60
2017,11,27,15,17,8.60
2017,11,27,15,18,8.60
2017,11,27,15,19,8.60
2017,11,27,15,20,8.60
2017,11,27,15,21,8.50
2017,11,27,15,22,8.50
2017,11,27,15,23,8.50
2017,11,27,15,24,8.50
2017,11,27,15,25,8.40
2017,11,27,15,26,8.40
2017,11,27,15,27,8.40
2017,11,27,15,28,8.40
2017,11,27,15,29,8.40
2017,11,27,15,30,8.30
2017,11,27,15,31,8.30
2017,11,27,15,32,8.30
2017,11,27,15,33,8.30
2017,11,27,15,34,8.30
2017,11,27,15,35,8.20
2017,11,27,15,36,8.20
2017,11,27,15,37,8.20
2017,11,27,15,38,8.20
2017,11,27,15,39,8.20
2017,11,27,15,40,8.10
2017,11,27,15,41,8.10
2017,11,27,15,42,8.10
2017,11,27,15,43,8.10
2017,11,27,15,44,8.10
2017,11,27,15,45,8.10
2017,11,27,15,46,8.10
2017,11,27,15,47,8.10
2017,11,27,15,48,8.00
2017,11,27,15,49,8.00
2017,11,27,15,50,8.00
2017,11,27,15,51,8.00
2017,11,27,15,52,8.00
2017,11,27,15,53,7.90
2017,11,27,15,54,7.90
2017,11,27,15,55,7.90
2017,11,27,15,56,7.90
2017,11,27,15,57,7.90
2017,11,27,15,58,7.80
2017,11,27,15,59,7.80
2017,11,27,16,00,7.80
2017,11,27,16,01,7.80
2017,11,27,16,02,7.80
2017,11,27,16,03,7.80
2017,11,27,16,04,7.80
2017,11,27,16,05,7.80
2017,11,27,16,06,7.80
2017,11,27,16,07,7.80
2017,11,27,16,08,7.80
2017,11,27,16,09,7.80
2017,11,27,16,10,7.80
2017,11,27,16,11,7.80
2017,11,27,16,12,7.80
2017,11,27,16,13,7.80
2017,11,27,16,14,7.70
2017,11,27,16,15,7.70
2017,11,27,16,16,7.70
2017,11,27,16,17,7.70
2017,11,27,16,18,7.70
2017,11,27,16,19,7.70
2017,11,27,16,20,7.70
2017,11,27,16,21,7.70
2017,11,27,16,22,7.70
2017,11,27,16,23,7.70
2017,11,27,16,24,7.70
2017,11,27,16,25,7.70
2017,11,27,16,26,7.70
2017,11,27,16,27,7.70
2017,11,27,16,28,7.70
2017,11,27,16,29,7.70
2017,11,27,16,30,7.70
2017,11,27,16,31,7.70
2017,11,27,16,32,7.70
2017,11,27,16,33,7.70
2017,11,27,16,34,7.70
2017,11,27,16,35,7.70
2017,11,27,16,36,7.70
2017,11,27,16,37,7.70
2017,11,27,16,38,7.70
2017,11,27,16,39,7.70
2017,11,27,16,40,7.70
2017,11,27,16,41,7.70
2017,11,27,16,42,7.70
2017,11,27,16,43,7.70
2017,11,27,16,44,7.70
2017,11,27,16,45,7.60
2017,11,27,16,46,7.60
2017,11,27,16,47,7.60
2017,11,27,16,48,7.60
2017,11,27,16,49,7.60
2017,11,27,16,50,7.60
2017,11,27,16,51,7.60
2017,11,27,16,52,7.60
2017,11,27,16,53,7.60
2017,11,27,16,54,7.60
2017,11,27,16,55,7.60
2017,11,27,16,56,7.60
2017,11,27,16,57,7.60
2017,11,27,16,58,7.60
2017,11,27,16,59,7.50
2017,11,27,17,00,7.50
2017,11,27,17,01,7.50
2017,11,27,17,02,7.50
2017,11,27,17,03,7.50
2017,11,27,17,04,7.50
2017,11,27,17,05,7.50
2017,11,27,17,06,7.40
2017,11,27,17,07,7.40
2017,11,27,17,08,7.40
2017,11,27,17,09,7.40
2017,11,27,17,10,7.40
2017,11,27,17,11,7.40
2017,11,27,17,12,7.30
2017,11,27,17,13,7.30
2017,11,27,17,14,7.30
2017,11,27,17,15,7.30
2017,11,27,17,16,7.30
2017,11,27,17,17,7.30
2017,11,27,17,18,7.40
2017,11,27,17,19,7.40
2017,11,27,17,20,7.40
2017,11,27,17,21,7.40
2017,11,27,17,22,7.40
2017,11,27,17,23,7.40
2017,11,27,17,24,7.40
2017,11,27,17,25,7.40
2017,11,27,17,26,7.40
2017,11,27,17,27,7.40
2017,11,27,17,28,7.30
2017,11,27,17,29,7.30
2017,11,27,17,30,7.30
2017,11,27,17,31,7.30
2017,11,27,17,32,7.30
2017,11,27,17,33,7.30
2017,11,27,17,34,7.30
2017,11,27,17,35,7.30
2017,11,27,17,36,7.30
2017,11,27,17,37,7.30
2017,11,27,17,38,7.30
2017,11,27,17,39,7.30
2017,11,27,17,40,7.30
2017,11,27,17,41,7.30
2017,11,27,17,42,7.30
2017,11,27,17,43,7.30
2017,11,27,17,44,7.30
2017,11,27,17,45,7.40
2017,11,27,17,46,7.40
2017,11,27,17,47,7.40
2017,11,27,17,48,7.40
2017,11,27,17,49,7.40
2017,11,27,17,50,7.40
2017,11,27,17,51,7.30
2017,11,27,17,52,7.30
2017,11,27,17,53,7.30
2017,11,27,17,54,7.30
2017,11,27,17,55,7.30
2017,11,27,17,56,7.30
2017,11,27,17,57,7.30
2017,11,27,17,58,7.30
2017,11,27,17,59,7.30
2017,11,27,18,00,7.30
2017,11,27,18,01,7.30
2017,11,27,18,02,7.30
2017,11,27,18,03,7.30